Theta_e
298 298 298 304 305 308 313 314 312 308 306 304 311 313 314 310 306 308 311 312 314 317 320 324 322 319 321 323 322 323 325 328 326 318 315 316 316 327 326 325 329 329 331 335 334
296 300 301 306 305 308 312 314 312 310 306 303 310 311 314 310 309 312 311 309 315 319 323 325 321 320 321 321 322 323 326 327 316 314 314 315 315 316 326 326 326 330 332 334 334
295 302 305 306 307 308 312 313 312 310 307 303 310 308 312 309 312 312 307 309 316 320 322 322 323 322 320 321 320 320 322 314 314 314 314 315 315 317 319 317 321 328 332 331 332
294 301 303 305 307 310 313 313 311 310 308 304 306 310 313 313 316 312 308 313 316 322 323 324 323 321 320 320 320 321 316 315 315 313 314 315 315 315 316 316 321 327 331 330 331
295 298 303 304 307 309 312 311 308 306 305 307 311 314 317 314 313 309 308 314 316 321 322 323 323 321 320 318 319 318 315 314 313 313 315 316 315 315 315 318 321 325 328 330 330
296 295 302 302 305 310 311 311 307 307 308 309 313 315 315 312 312 309 310 315 317 319 319 318 321 322 318 319 318 317 316 315 314 314 314 314 314 314 315 318 321 322 323 326 327
295 295 300 302 304 310 310 311 309 308 309 312 313 312 311 312 312 309 314 316 317 317 316 318 317 319 319 317 316 317 316 315 315 314 313 314 314 314 315 317 319 318 320 321 322
294 295 300 303 304 309 310 310 309 308 309 313 312 311 309 312 311 310 315 316 315 315 316 318 319 319 318 317 317 316 317 319 316 314 313 314 318 312 314 316 317 317 318 321 322
295 296 301 304 306 310 310 309 309 310 312 312 312 311 309 311 312 312 316 315 315 314 316 316 317 318 318 316 316 317 321 320 317 314 312 314 318 313 313 315 315 315 315 315 315
295 296 300 304 307 310 310 309 309 311 312 311 312 309 307 312 312 312 314 315 314 313 314 315 316 315 316 318 323 321 322 319 320 317 315 314 313 313 313 313 315 315 315 314 313
294 297 300 303 308 310 309 310 311 311 312 310 309 309 310 310 311 313 315 314 314 314 314 315 314 316 317 319 317 320 321 321 319 318 316 316 316 314 313 312 313 314 314 314 314
294 297 300 304 309 310 311 311 308 308 311 311 309 309 310 310 310 313 314 314 314 313 314 313 315 315 316 317 316 319 322 321 320 314 318 317 317 316 313 312 313 314 315 315 314
294 297 301 305 309 310 310 309 309 309 311 311 311 308 308 310 310 311 313 313 312 312 314 314 314 314 315 315 316 316 318 319 320 316 314 313 313 314 314 313 313 314 315 315 315
294 297 301 306 308 309 309 308 309 310 306 312 311 309 306 308 310 309 312 311 314 313 313 314 314 314 314 315 315 317 315 315 317 318 317 314 318 313 316 315 313 313 314 315 314
294 296 300 303 307 308 308 309 308 310 304 311 311 310 307 307 309 310 310 310 311 314 313 313 313 313 314 314 314 315 313 314 316 316 316 316 312 314 313 317 314 313 313 314 314
294 295 299 304 306 308 308 308 308 301 304 308 309 310 308 307 308 309 309 310 309 311 312 312 311 312 313 313 313 312 313 314 314 314 310 314 314 311 314 316 316 313 313 314 314
294 294 296 302 304 308 308 309 302 301 304 308 310 309 309 307 308 309 309 308 309 310 311 311 312 311 312 314 313 313 312 310 311 317 314 313 315 313 314 313 313 313 314 313 314
296 295 296 299 303 307 307 301 300 303 306 308 308 310 309 308 307 307 307 308 307 307 308 311 309 310 310 311 313 311 312 312 315 317 315 312 315 313 311 311 311 314 315 313 313
297 296 296 298 303 305 306 297 298 303 307 309 309 310 309 309 309 306 306 306 307 306 308 308 309 309 309 311 311 312 313 312 312 308 312 311 310 310 308 308 308 310 312 312 312
297 297 297 298 304 304 300 304 301 306 306 309 307 308 308 308 307 307 307 305 306 306 307 308 309 309 310 311 311 311 311 313 311 310 314 312 311 312 312 310 307 307 310 310 311
297 298 296 299 304 304 296 302 303 305 306 308 308 309 310 310 307 307 307 306 305 306 306 307 308 308 310 310 311 311 311 312 311 311 315 314 311 308 310 310 308 305 309 311 311
295 290 295 299 296 297 298 292 301 304 305 306 308 308 307 309 310 309 307 306 307 307 306 307 308 306 307 309 308 309 311 311 312 312 310 311 313 309 307 307 309 308 309 311 311
296 295 295 298 289 282 293 294 299 302 303 304 306 307 307 308 309 310 310 309 309 307 307 307 304 300 305 305 308 309 310 311 311 312 314 314 312 306 305 306 308 308 309 310 310
293 286 294 296 295 293 289 291 294 300 303 304 305 304 306 307 307 306 309 309 308 307 308 308 308 307 307 304 307 309 309 310 311 312 313 313 313 310 307 306 305 307 308 308 308
293 288 291 284 289 291 294 291 294 295 300 301 301 303 305 302 304 306 308 309 308 308 307 308 306 306 307 306 308 307 306 308 310 311 313 312 312 312 310 310 307 311 309 307 307
291 292 293 294 294 290 290 286 293 296 295 293 294 300 302 302 302 305 304 306 309 304 306 307 307 305 307 307 305 307 307 308 307 308 310 311 311 311 311 311 311 312 309 306 307
292 293 292 292 291 289 287 291 293 296 297 298 297 296 297 299 302 303 304 303 302 302 302 303 306 307 309 306 305 307 307 307 306 306 307 309 310 309 308 307 310 311 308 309 310
Wind_Speed
11 9 7 1 6 7 3 11 9 10 13 12 13 11 11 15 14 16 11 8 9 9 9 11 13 6 8 5 2 3 4 2 3 2 3 6 5 10 7 12 12 9 18 23 15
12 11 7 5 8 8 3 8 9 8 12 15 14 13 15 17 15 12 8 11 13 13 13 12 11 10 4 2 3 5 3 3 2 1 4 7 7 7 5 10 10 18 20 21 17
12 12 11 6 4 4 5 11 7 9 10 14 16 13 18 17 13 4 8 14 16 15 11 7 9 6 4 3 4 3 3 3 2 5 5 6 4 4 16 5 4 14 19 21 18
12 12 8 6 2 12 12 14 8 7 7 10 15 18 20 16 5 5 9 17 15 14 12 19 10 3 3 2 3 5 9 6 2 2 3 4 6 6 7 7 10 16 18 19 18
14 10 12 9 9 9 15 10 5 7 10 15 17 25 15 9 5 12 13 14 15 15 13 9 10 5 5 2 3 5 3 8 9 9 10 8 6 6 9 12 13 15 14 16 17
14 10 13 9 1 12 9 11 10 13 14 14 17 17 7 6 7 12 16 16 18 12 4 3 5 6 9 4 4 4 13 7 7 7 5 6 5 2 7 12 14 15 15 15 15
14 12 13 6 2 14 11 8 9 12 13 19 17 11 11 8 10 14 18 16 13 8 8 12 8 3 9 5 7 5 4 5 4 2 2 6 0 3 16 15 16 16 16 14 14
13 13 14 10 5 9 8 8 8 11 16 22 12 11 6 6 12 15 17 14 14 9 13 15 13 12 5 13 5 4 4 3 2 4 2 3 4 4 17 19 18 15 14 15 15
11 11 11 12 5 8 12 10 15 19 17 14 11 9 4 11 12 13 12 13 15 12 14 11 8 7 7 5 4 4 2 0 2 9 4 4 4 8 16 17 17 18 14 14 15
10 10 11 13 5 10 14 15 20 20 14 12 11 7 5 5 10 13 11 13 10 12 9 4 4 3 2 1 3 5 4 3 3 5 6 5 8 6 17 17 18 20 17 16 14
10 10 9 10 9 10 16 18 9 9 19 11 12 13 10 10 12 12 14 8 9 5 3 1 4 4 9 5 4 7 4 4 4 2 6 7 8 8 18 18 19 21 24 20 18
10 9 9 12 10 14 14 8 8 11 12 13 15 11 12 7 6 11 12 3 4 4 2 4 2 5 4 6 5 5 5 4 1 2 1 6 11 10 10 17 27 27 29 27 23
9 8 9 12 15 15 8 14 11 9 5 7 10 8 6 5 4 11 7 0 3 2 4 5 3 5 6 4 3 2 2 4 2 2 2 4 7 9 10 23 26 29 34 33 31
9 9 11 15 13 16 13 10 6 3 4 3 3 4 2 3 4 8 4 1 2 7 4 4 7 7 7 3 3 2 5 1 5 2 3 3 6 5 5 11 15 28 34 36 33
8 8 11 11 18 13 11 5 2 2 4 3 3 3 2 4 3 1 3 1 1 2 5 5 3 5 4 3 4 1 3 3 2 2 3 3 1 7 5 6 11 21 28 35 36
6 5 9 17 16 17 15 9 1 5 1 3 4 2 2 3 4 2 1 2 3 3 1 4 1 1 4 4 4 5 4 1 3 1 2 7 6 4 4 6 5 12 27 34 35
6 6 5 12 15 15 11 4 5 5 3 1 1 3 1 2 3 1 1 1 3 3 2 3 2 1 1 2 2 4 5 2 2 1 5 1 4 8 7 7 6 9 27 33 34
6 5 7 8 14 16 11 5 5 3 2 2 2 2 2 4 2 4 2 2 4 1 2 5 5 8 6 7 6 6 7 4 5 3 4 0 6 6 6 5 1 7 13 30 34
5 7 6 8 13 15 8 4 7 5 6 7 2 4 4 3 3 4 5 5 7 7 5 2 5 1 6 4 9 4 8 3 2 1 1 4 7 8 2 5 3 6 9 27 35
6 5 5 6 12 12 4 5 2 1 0 3 5 4 6 4 5 6 4 5 5 12 13 3 3 3 1 1 2 5 4 1 1 2 5 5 5 8 4 5 5 5 11 22 30
7 3 4 7 12 3 3 3 4 3 2 4 5 5 4 5 7 4 5 4 8 6 14 6 4 3 2 4 6 2 3 4 5 5 4 3 5 5 6 6 6 9 13 22 27
6 3 7 9 4 3 3 4 1 5 2 1 1 2 7 7 5 7 6 6 8 5 7 5 4 5 8 6 8 6 8 8 5 4 4 3 13 4 7 6 7 12 16 21 24
8 3 8 8 3 2 2 3 2 3 4 4 4 2 3 6 3 6 6 5 9 3 5 6 1 2 8 5 3 6 9 6 6 2 8 6 8 1 4 4 5 10 17 20 22
7 2 3 4 4 4 4 4 2 7 3 7 4 3 2 3 2 2 2 1 0 2 1 2 3 8 10 5 2 5 9 11 15 9 20 16 28 14 5 6 8 13 18 21 25
7 3 5 2 4 4 3 5 3 3 5 8 4 6 8 4 2 4 4 2 1 5 1 4 8 6 15 11 2 5 6 8 14 17 15 24 23 25 17 15 15 27 25 27 30
9 6 5 5 4 7 3 5 9 4 7 5 6 9 10 7 8 5 3 2 1 5 3 2 4 5 14 17 9 11 13 9 14 17 18 22 25 31 21 19 28 36 32 31 34
13 9 4 6 6 5 5 6 9 6 9 9 11 4 2 8 8 8 7 8 10 3 0 4 3 2 15 15 10 11 23 27 23 17 18 18 28 22 16 12 24 33 27 31 37
Wind_Direction
19 9 356 360 162 246 86 167 156 168 169 180 194 199 175 148 144 141 146 138 144 140 144 146 150 132 158 146 95 28 70 147 208 97 137 53 112 66 88 93 69 91 127 135 151
22 27 41 80 191 257 128 168 147 156 170 177 191 199 156 146 140 120 157 146 141 123 121 130 147 151 95 71 43 56 104 131 18 26 90 70 73 103 89 83 87 105 127 151 153
30 42 49 64 222 287 158 147 148 129 156 170 187 181 152 141 120 117 142 149 138 131 134 159 162 138 68 68 17 38 96 129 47 95 94 93 64 80 124 68 111 140 141 164 168
32 39 41 33 226 56 100 122 141 150 161 172 174 154 145 147 104 149 149 143 137 129 109 144 149 109 81 59 19 105 74 107 117 78 80 79 109 64 57 126 143 153 154 165 164
35 39 34 10 194 69 97 109 120 138 127 131 142 143 134 97 113 150 143 136 130 128 126 148 158 133 102 89 50 75 86 69 99 91 79 117 91 122 114 139 150 148 155 161 164
27 40 39 15 233 108 98 94 91 107 113 127 135 120 107 80 134 144 141 128 121 123 117 165 173 143 108 93 66 83 92 104 87 94 99 105 145 60 164 149 145 156 167 169 175
26 35 49 70 33 101 113 91 99 110 117 128 121 80 72 97 133 142 137 119 106 116 118 115 105 225 122 107 105 102 80 65 45 73 104 114 227 216 163 164 159 166 178 186 189
34 34 48 84 19 87 98 83 107 108 137 137 90 73 64 91 132 139 146 131 102 116 125 101 107 98 106 113 69 62 57 121 209 164 160 174 253 173 170 171 175 187 190 198 204
38 50 60 102 87 110 101 99 102 110 127 131 76 63 74 114 132 134 152 136 123 124 128 112 89 93 120 101 63 26 138 184 203 202 149 207 234 176 181 186 188 184 197 203 203
49 50 68 109 110 122 113 110 98 99 115 90 63 93 105 104 144 139 133 150 135 129 110 100 93 82 356 106 166 152 169 196 239 223 195 201 243 177 195 200 200 192 204 209 213
56 50 73 122 107 127 127 120 90 87 64 67 80 83 114 110 142 138 134 138 147 130 108 208 85 183 217 197 117 148 146 173 201 231 196 244 265 229 208 209 215 208 195 210 219
70 58 70 111 106 142 142 119 120 123 75 71 60 92 122 79 108 152 148 138 153 176 135 36 214 223 155 135 100 124 160 202 109 94 144 285 274 267 204 217 214 207 207 214 218
76 78 92 125 104 124 124 94 101 103 87 52 67 67 128 62 115 172 176 167 183 208 180 166 254 165 107 80 103 288 184 204 192 158 279 346 279 243 229 216 223 221 220 221 223
73 90 116 138 107 118 100 106 70 70 79 344 35 60 70 104 56 160 195 357 239 205 208 246 268 131 129 170 166 292 223 49 115 90 265 127 292 308 246 222 206 212 214 216 216
78 85 147 155 138 136 137 128 45 12 79 359 36 48 103 44 129 85 202 266 4 263 104 252 143 127 125 191 181 201 100 138 201 268 303 192 358 269 255 255 222 218 211 214 219
77 92 123 147 144 150 153 156 210 41 53 6 344 84 78 36 49 53 12 321 291 351 352 203 164 72 184 205 203 165 104 11 15 91 332 221 173 265 226 210 249 211 213 215 214
80 86 127 147 147 151 149 143 43 100 272 15 35 134 215 150 89 145 154 271 174 91 269 342 212 181 97 147 102 139 90 354 335 238 241 313 182 248 265 248 223 224 214 213 211
100 99 106 143 157 157 152 55 84 231 230 70 156 129 229 132 183 190 170 225 282 57 154 182 297 159 193 187 182 184 163 162 222 227 267 193 238 253 241 208 242 208 227 214 208
102 108 95 132 159 163 145 70 188 204 153 150 95 134 215 172 108 157 211 208 209 182 197 232 252 185 161 173 145 227 219 199 352 1 344 241 290 297 141 242 235 218 207 204 205
120 79 81 119 160 163 83 147 170 113 267 155 161 173 178 202 165 181 224 226 212 206 185 254 297 0 356 142 283 159 176 162 360 263 254 265 248 238 278 275 230 236 207 198 201
126 102 108 127 151 136 140 158 199 149 168 177 213 169 189 182 185 204 227 267 201 213 189 173 147 278 119 194 192 154 210 207 166 179 222 294 262 217 226 211 195 221 208 200 202
147 81 154 153 70 44 170 191 254 148 185 272 306 256 206 184 201 203 235 225 218 196 211 204 171 218 232 232 210 212 216 196 190 231 232 237 263 232 213 226 173 202 210 204 212
144 115 167 175 135 271 317 300 238 135 171 179 229 249 340 214 214 215 209 220 240 203 199 174 243 27 328 328 255 221 224 219 250 214 223 203 262 346 62 158 188 202 207 210 217
156 90 134 180 141 148 145 250 239 210 201 184 213 72 305 246 313 252 266 278 177 227 216 170 172 189 225 210 95 206 211 217 220 234 241 235 260 240 265 232 232 223 219 217 219
176 212 171 206 248 185 155 167 169 204 200 198 203 187 199 226 289 232 229 294 51 352 265 130 224 228 253 269 271 229 269 268 239 239 237 247 248 259 245 263 241 270 252 220 221
164 159 173 158 130 145 221 236 190 197 156 244 170 198 194 198 189 193 132 156 259 39 339 160 250 194 263 265 238 258 273 248 254 264 260 256 261 259 259 257 248 254 251 225 231
194 172 159 179 146 128 220 207 203 185 226 222 202 163 189 229 232 255 216 219 209 180 2 314 326 280 252 255 257 255 240 243 247 241 236 249 252 271 264 241 254 261 252 249 246